Orbital Elements at Epoch 2459200.5 (2020-Dec-17.0) TDB
Reference: JPL 20 (heliocentric ecliptic J2000)
Element | Value | Uncertainty (1-sigma) | Units |
e | .1754464865241453 | 4.0762e-08 | |
a | 2.345878769664577 | 7.0746e-09 | au |
q | 1.934302581715342 | 9.6346e-08 | au |
i | 2.834641865703252 | 3.7092e-06 | deg |
node | 317.6577863271615 | 7.806e-05 | deg |
peri | 207.7210531362139 | 7.8874e-05 | deg |
M | 278.3271334307119 | 1.2862e-05 | deg |
tp | 2459498.236495517653 (2021-Oct-10.73649552) | 4.7605e-05 | TDB |
period | 1312.371450748863 3.59 | 5.9367e-06 1.625e-08 | d yr |
n | .2743125810871437 | 1.2409e-09 | deg/d |
Q | 2.757454957613812 | 8.3158e-09 | au |
|
| | Orbit Determination Parameters
Additional Information
|